Voltar ao catálogo

COSMOS 1299 FUEL CORE

AtivoLEO
NORAD 12808·DEBRIS·🇷🇺 Russia

Lançado Aug 24, 1981 de Baikonur Cosmodrome

Loading…

Próximas Passagens (próximas 24 horas)

TLE

AtualizadoSource: Space-Track

Época: Sep 14, 2026, 12:00 UTC

1 12808U 81081C   26257.50036346 -.00000070  00000-0  16073-4 0  9995
2 12808  65.1183 333.2330 0007631  98.3151 273.6602 13.88661631284773

Acompanhe COSMOS 1299 FUEL CORE em tempo real com AllMySat

Download on the App Store